TimeMST,TemperatureF,Dew PointF,Humidity,Sea Level PressureIn,VisibilityMPH,Wind Direction,Wind SpeedMPH,Gust SpeedMPH,PrecipitationIn,Events,Conditions,WindDirDegrees,DateUTC
12:52 AM,28.9,23.0,78,29.81,10.0,NW,10.4,-,N/A,,Clear,310,2013-02-18 07:52:00
1:52 AM,27.0,21.9,81,29.84,10.0,NW,9.2,-,N/A,,Clear,310,2013-02-18 08:52:00
2:52 AM,25.0,21.0,85,29.84,10.0,NW,5.8,-,N/A,,Clear,310,2013-02-18 09:52:00
3:52 AM,26.1,21.0,81,29.85,10.0,WNW,5.8,-,N/A,,Partly Cloudy,300,2013-02-18 10:52:00
4:52 AM,28.9,21.9,75,29.90,10.0,North,16.1,21.9,N/A,,Mostly Cloudy,350,2013-02-18 11:52:00
5:52 AM,27.0,19.0,72,29.94,10.0,North,13.8,26.5,N/A,,Clear,350,2013-02-18 12:52:00
7:52 AM,28.9,17.1,61,29.99,10.0,North,20.7,32.2,N/A,,Clear,10,2013-02-18 14:52:00
8:52 AM,28.9,17.1,61,30.02,10.0,North,21.9,28.8,N/A,,Clear,360,2013-02-18 15:52:00
9:52 AM,30.9,17.1,57,30.05,10.0,North,18.4,26.5,N/A,,Clear,350,2013-02-18 16:52:00
10:52 AM,32.0,15.1,50,30.05,10.0,NNW,15.0,25.3,N/A,,Mostly Cloudy,330,2013-02-18 17:52:00
11:52 AM,34.0,14.0,44,30.05,10.0,NNW,15.0,25.3,N/A,,Partly Cloudy,330,2013-02-18 18:52:00
12:52 PM,35.1,14.0,42,30.04,10.0,North,21.9,28.8,N/A,,Scattered Clouds,360,2013-02-18 19:52:00
1:52 PM,33.1,16.0,50,30.05,10.0,North,13.8,23.0,N/A,,Overcast,350,2013-02-18 20:52:00
2:52 PM,28.9,19.9,69,30.09,1.2,NNW,12.7,21.9,0.00,Snow,Light Snow,340,2013-02-18 21:52:00
3:28 PM,26.6,19.4,74,30.01,3.0,North,15.0,21.9,0.00,Snow,Light Snow,350,2013-02-18 22:28:00
3:38 PM,26.6,19.4,74,30.01,5.0,NNW,15.0,24.2,0.00,Snow,Light Snow,340,2013-02-18 22:38:00
3:50 PM,26.6,19.4,74,30.01,2.5,NNW,13.8,-,0.00,Snow,Light Snow,330,2013-02-18 22:50:00
3:51 PM,27.0,19.9,75,30.12,2.0,NNW,12.7,-,0.00,Snow,Light Snow,340,2013-02-18 22:51:00
3:58 PM,26.6,21.2,80,30.01,0.8,NW,10.4,18.4,0.00,Snow,Light Snow,320,2013-02-18 22:58:00
4:05 PM,26.6,19.4,74,30.01,2.0,NW,12.7,20.7,0.00,Snow,Light Snow,320,2013-02-18 23:05:00
4:52 PM,28.0,17.1,63,30.11,8.0,NNW,18.4,24.2,0.00,Snow,Light Snow,340,2013-02-18 23:52:00
6:52 PM,24.1,12.9,62,30.17,10.0,NNW,8.1,-,0.00,,Scattered Clouds,330,2013-02-19 01:52:00
7:52 PM,21.9,12.0,66,30.19,10.0,NNW,3.5,-,N/A,,Mostly Cloudy,330,2013-02-19 02:52:00
8:52 PM,17.1,10.0,74,30.21,10.0,NE,4.6,-,N/A,,Clear,50,2013-02-19 03:52:00
9:52 PM,16.0,9.0,74,30.23,10.0,Calm,Calm,-,N/A,,Clear,0,2013-02-19 04:52:00
10:52 PM,16.0,9.0,74,30.24,10.0,Calm,Calm,-,N/A,,Clear,0,2013-02-19 05:52:00
11:52 PM,12.9,8.1,81,30.25,10.0,NW,3.5,-,N/A,,Clear,320,2013-02-19 06:52:00